(270995) = 2002 XP47

Discovered at Socorro on 2002-12-10 by LINEAR.

Orbit

Orbit type: Hungaria

Note: WebGL enabled browser required.

epoch2023-09-13.0
epoch JD2460200.5
perihelion date2021-08-24.27929
perihelion JD2459450.77929
argument of perihelion (°)302.31153
ascending node (°)59.62807
inclination (°)22.79543
eccentricity0.0962545
perihelion distance (AU)1.7670907
Tisserand w.r.t. Jupiter3.8
ΔV w.r.t. Earth (km/sec)11.0
semimajor axis (AU)1.9552968
mean anomaly (°)270.26158
mean daily motion (°/day)0.36048300
aphelion distance (AU)2.144
period (years)2.73
P-vector [x]0.94247484
P-vector [y]0.19192649
P-vector [z]-0.27368849
Q-vector [x]0.00217384
Q-vector [y]0.81521110
Q-vector [z]0.57915986
absolute magnitude17.53
phase slope0.15
uncertainty0
referenceMPEC 2024-C06
observations used333
oppositions11
arc length (days)7514
first opposition used2002
last opposition used2023
residual rms (arc-secs)0.78
perturbers coarse indicatorM-v
perturbers precise indicator003Ek
first observation date used2002-11-13.0
last observation date used2023-06-10.0
computer nameMPCLINUX
JD of orbit computation2456670.841272
perihelion JD uncertainty (days)1.3875E-04
argument of perihelion uncertainty (°)5.2527E-05
ascending node uncertainty (°)1.3827E-05
inclination uncertainty (°)1.1498E-05
eccentricity uncertainty 8.7634E-08
perihelion distance uncertainty (AU)1.6965E-07
Minimum Orbit Intersection Distances (in AU)
for orbit epoch: 2460000.5, reference: E2023-L52
Mercury1.40847
Venus1.07408
Earth0.82662
Mars0.34713
Jupiter3.17326
Saturn7.18625
Uranus16.4487
Neptune28.0672

Observations

339 total observations over interval: 2002 11 13.52199 – 2023 06 10.282963
These data are available for download (format description).

Date (UT) J2000 RA J2000 Dec Magn Location Ref
2002 11 13.52199 04 21 44.80 +20 20 08.0 18.7   644 – Palomar Mountain/NEAT MPS 244623
2002 11 13.53239 04 21 43.75 +20 20 17.9 18.9   644 – Palomar Mountain/NEAT MPS 244623
2002 11 13.54280 04 21 42.72 +20 20 27.7 18.9   644 – Palomar Mountain/NEAT MPS 244623
2002 11 24.25939 04 02 50.85 +23 10 13.7 18.8   644 – Palomar Mountain/NEAT MPS 83089
2002 11 24.32629 04 02 43.22 +23 11 15.5 19.1   644 – Palomar Mountain/NEAT MPS 83089
2002 11 24.38856 04 02 36.12 +23 12 11.8 18.8   644 – Palomar Mountain/NEAT MPS 83089
2002 12 10.21270 03 35 00.54 +26 46 20.6 19.3   704 – Lincoln Laboratory ETS, New Mexico MPS 68425
2002 12 10.22823 03 34 59.03 +26 46 31.6 19.3   704 – Lincoln Laboratory ETS, New Mexico MPS 68425
2002 12 10.24360 03 34 57.58 +26 46 42.5 19.8   704 – Lincoln Laboratory ETS, New Mexico MPS 68425
2002 12 10.25894 03 34 56.20 +26 46 52.3 19.6   704 – Lincoln Laboratory ETS, New Mexico MPS 68425
2002 12 10.27427 03 34 54.65 +26 47 03.7 20.1   704 – Lincoln Laboratory ETS, New Mexico MPS 68425
2002 12 11.24152 03 33 26.99 +26 58 17.0 19.6   704 – Lincoln Laboratory ETS, New Mexico MPS 68425
2002 12 11.25706 03 33 25.59 +26 58 28.3 19.4   704 – Lincoln Laboratory ETS, New Mexico MPS 68425
2002 12 11.27256 03 33 24.12 +26 58 38.3 19.4   704 – Lincoln Laboratory ETS, New Mexico MPS 68425
2002 12 13.14887 03 30 41.24 +27 19 46.9 19.5   704 – Lincoln Laboratory ETS, New Mexico MPS 71675
2002 12 13.16369 03 30 39.94 +27 19 56.7 19.5   704 – Lincoln Laboratory ETS, New Mexico MPS 71675
2002 12 13.17853 03 30 38.67 +27 20 07.7 19.8   704 – Lincoln Laboratory ETS, New Mexico MPS 71675
2002 12 13.19337 03 30 37.30 +27 20 17.6 19.9   704 – Lincoln Laboratory ETS, New Mexico MPS 71675
2004 06 12.51215 15 12 36.96 -23 27 06.4 20.1 R E12 – Siding Spring Survey MPS 283721
2004 06 12.51782 15 12 36.47 -23 27 09.6 19.7 R E12 – Siding Spring Survey MPS 283721
2004 06 12.52351 15 12 36.03 -23 27 12.7 19.4 R E12 – Siding Spring Survey MPS 283721
2004 06 12.52921 15 12 35.67 -23 27 15.3 19.6 R E12 – Siding Spring Survey MPS 283721
2006 01 26.22300 08 15 05.85 +57 11 19.4 19.5 R 699 – Lowell Observatory-LONEOS MPS 283721
2006 01 26.24807 08 15 02.87 +57 11 27.4   699 – Lowell Observatory-LONEOS MPS 283721
2006 01 26.27328 08 14 59.72 +57 11 35.4   699 – Lowell Observatory-LONEOS MPS 283721
2006 01 26.29845 08 14 56.93 +57 11 43.7   699 – Lowell Observatory-LONEOS MPS 283721
2008 11 21.47043 11 25 01.48 +28 13 53.2 21.8 V G96 – Mt. Lemmon Survey MPS 283721
2008 11 21.47601 11 25 02.06 +28 13 53.2 20.8 V G96 – Mt. Lemmon Survey MPS 283721
2008 11 21.48155 11 25 02.67 +28 13 52.8 21.6 V G96 – Mt. Lemmon Survey MPS 283721
2008 11 21.48711 11 25 03.32 +28 13 52.5 21.8 V G96 – Mt. Lemmon Survey MPS 283721
2009 03 20.31005 11 57 11.80 +41 55 00.9 20.2 V G96 – Mt. Lemmon Survey MPS 283721
2009 03 20.31212 11 57 11.59 +41 55 00.6 20.6 V G96 – Mt. Lemmon Survey MPS 283721
2009 03 20.31422 11 57 11.41 +41 55 00.6 20.3 V G96 – Mt. Lemmon Survey MPS 283721
2009 03 20.31629 11 57 11.19 +41 55 00.4 20.2 V G96 – Mt. Lemmon Survey MPS 283721
2010 09 29.37403 02 00 27.63 -28 56 50.0 18.8   704 – Lincoln Laboratory ETS, New Mexico MPS 386792
2010 09 29.38746 02 00 26.52 -28 56 47.6 19.4   704 – Lincoln Laboratory ETS, New Mexico MPS 386792
2010 09 29.40107 02 00 25.33 -28 56 46.3 19.0   704 – Lincoln Laboratory ETS, New Mexico MPS 386792
2010 09 29.41448 02 00 23.96 -28 56 44.0 19.3   704 – Lincoln Laboratory ETS, New Mexico MPS 386792
2010 10 14.417574 01 36 31.006 -27 27 46.02 20.80 g F51 – Pan-STARRS 1, Haleakala MPS 365434
2010 10 14.429116 01 36 29.791 -27 27 38.80 20.64 g F51 – Pan-STARRS 1, Haleakala MPS 365434
2010 11 03.27640 01 06 43.88 -22 07 17.4 19.6 V 703 – Catalina Sky Survey MPS 355248
2010 11 03.28211 01 06 43.52 -22 07 12.0 19.1 V 703 – Catalina Sky Survey MPS 355248
2010 11 03.28788 01 06 43.02 -22 07 04.6 19.4 V 703 – Catalina Sky Survey MPS 355248
2010 11 10.21795 00 59 31.59 -19 34 51.5 20.2 V 703 – Catalina Sky Survey MPS 357372
2010 11 10.22361 00 59 31.20 -19 34 44.4 19.4 V 703 – Catalina Sky Survey MPS 357372
2010 11 10.22940 00 59 30.87 -19 34 35.9 19.5 V 703 – Catalina Sky Survey MPS 357372
2010 11 10.23519 00 59 30.48 -19 34 27.1 19.0 V 703 – Catalina Sky Survey MPS 357372
2011 02 01.24489 01 47 59.847 +11 32 59.10 21.7 w F51 – Pan-STARRS 1, Haleakala MPS 378587
2011 02 01.24975 01 48 00.287 +11 33 04.42 21.7 w F51 – Pan-STARRS 1, Haleakala MPS 378587
2011 02 01.25486 01 48 00.749 +11 33 10.00 21.8 w F51 – Pan-STARRS 1, Haleakala MPS 378587
2011 02 01.25975 01 48 01.192 +11 33 15.62 21.7 w F51 – Pan-STARRS 1, Haleakala MPS 378587
2012 04 28.37597 14 01 24.964 +10 07 04.77 19.7 i F51 – Pan-STARRS 1, Haleakala MPS 423629
2012 04 28.38743 14 01 23.926 +10 07 00.62 19.6 i F51 – Pan-STARRS 1, Haleakala MPS 423629
2013 10 31.43967 05 40 38.43 +25 17 33.1 19.0 V G96 – Mt. Lemmon Survey MPS 485041
2013 10 31.44642 05 40 38.24 +25 17 38.8 18.6 V G96 – Mt. Lemmon Survey MPS 485041
2013 10 31.45316 05 40 38.09 +25 17 47.1 19.1 V G96 – Mt. Lemmon Survey MPS 485041
2013 10 31.45990 05 40 37.84 +25 17 53.5 18.4 V G96 – Mt. Lemmon Survey MPS 485041
2013 11 10.44245 05 34 19.31 +28 19 56.8 20.2 V G96 – Mt. Lemmon Survey MPS 488268
2013 11 10.44920 05 34 18.90 +28 20 05.0 19.5 V G96 – Mt. Lemmon Survey MPS 488268
2013 11 10.45596 05 34 18.52 +28 20 12.2 19.7 V G96 – Mt. Lemmon Survey MPS 488268
2013 11 10.46275 05 34 18.15 +28 20 20.1 19.3 V G96 – Mt. Lemmon Survey MPS 488268
2013 11 27.50504 05 11 21.957 +33 40 06.87 19.1 r F51 – Pan-STARRS 1, Haleakala MPS 489753
2013 11 27.51713 05 11 20.654 +33 40 19.66 19.1 r F51 – Pan-STARRS 1, Haleakala MPS 489753
2013 11 27.54139 05 11 18.036 +33 40 45.04 18.9 i F51 – Pan-STARRS 1, Haleakala MPS 489753
2013 11 27.55397 05 11 16.681 +33 40 58.17 19.2 i F51 – Pan-STARRS 1, Haleakala MPS 489753
2013 12 04.20318 04 59 10.21 +35 32 02.5 19.7 R 926 – Tenagra II Observatory, Nogales MPS 490862
2013 12 04.22140 04 59 08.09 +35 32 19.3 20.0 R 926 – Tenagra II Observatory, Nogales MPS 490862
2013 12 04.23971 04 59 05.96 +35 32 36.8 20.2 R 926 – Tenagra II Observatory, Nogales MPS 490862
2013 12 07.52917 04 52 47.810 +36 21 54.11 19.5 g F51 – Pan-STARRS 1, Haleakala MPS 491909
2013 12 07.54164 04 52 46.335 +36 22 04.55 19.3 g F51 – Pan-STARRS 1, Haleakala MPS 491909
2013 12 12.33885 04 43 34.70 +37 26 03.3 18.2 V 703 – Catalina Sky Survey MPS 491909
2013 12 12.35602 04 43 32.77 +37 26 15.9 18.8 V 703 – Catalina Sky Survey MPS 491909
2013 12 12.36800 04 43 31.31 +37 26 24.4 18.9 V 703 – Catalina Sky Survey MPS 491909
2013 12 12.37102 04 43 31.02 +37 26 27.0 20.0 V 703 – Catalina Sky Survey MPS 491909
2013 12 13.21638 04 41 55.65 +37 36 41.9 19.5 V G96 – Mt. Lemmon Survey MPS 491909
2013 12 13.22510 04 41 54.60 +37 36 48.3 17.9 V G96 – Mt. Lemmon Survey MPS 491909
2013 12 13.24254 04 41 52.58 +37 37 00.7 18.2 V G96 – Mt. Lemmon Survey MPS 491909
2013 12 23.18508 04 24 25.75 +39 15 03.5 18.8 V 703 – Catalina Sky Survey MPS 493247
2013 12 23.19011 04 24 25.30 +39 15 06.9 18.1 V 703 – Catalina Sky Survey MPS 493247
2013 12 23.19515 04 24 24.91 +39 15 10.4 18.3 V 703 – Catalina Sky Survey MPS 493247
2013 12 23.20021 04 24 24.43 +39 15 12.2 18.9 V 703 – Catalina Sky Survey MPS 493247
2014 01 06.24993 04 07 17.073 +40 34 28.21 20.0 r F51 – Pan-STARRS 1, Haleakala MPS 496425
2014 01 06.25911 04 07 16.601 +40 34 30.49 20.0 r F51 – Pan-STARRS 1, Haleakala MPS 496425
2016 12 27.49563 10 10 12.32 +46 32 09.9 20.1 V G96 – Mt. Lemmon Survey MPS 755547
2016 12 27.50002 10 10 12.26 +46 32 14.9 20.6 V G96 – Mt. Lemmon Survey MPS 755547
2016 12 27.50881 10 10 12.26 +46 32 24.4 20.3 V G96 – Mt. Lemmon Survey MPS 755547
2017 01 21.59635 09 54 26.10 +53 44 35.8 20.5 R D29 – Purple Mountain Observatory, XuYi Station MPS 761732
2017 01 21.61844 09 54 24.20 +53 44 54.4 20.4 R D29 – Purple Mountain Observatory, XuYi Station MPS 761732
2017 01 22.84987 09 52 41.74 +54 01 44.6 20.5 R D29 – Purple Mountain Observatory, XuYi Station MPS 761732
2017 01 22.86587 09 52 40.25 +54 01 57.3 20.0 R D29 – Purple Mountain Observatory, XuYi Station MPS 761732
2017 01 22.88187 09 52 38.88 +54 02 09.9 21.1 R D29 – Purple Mountain Observatory, XuYi Station MPS 761732
